This demonstration page uses our WeatherBlox Daily Observations layout. Learn more.

Left ArrowRight Arrow

30.21309, -93.2044

Hourly Observations for March 5, 2015

Temp ( °F °C ) Dew Point ( °F °C ) Humidity (%) Winds ( mph kmh ) Pressure ( in mb ) Visibility ( mi km ) Precip ( " mm )
12:15 am 00:15 Cloudy with Mist and Fog 70 21.2 70 20.9 98 98 SW 9 15 29.91 1013 5 8 0.00 0.00
12:35 am 00:35 Cloudy with Mist and Fog 70 21.1 69 20.7 98 98 SSW 8 13 29.91 1013 4 6 0.00 0.00
12:55 am 00:55 Cloudy with Light Rain 54 12.4 53 11.5 94 94 NNW 21 33 29.94 1014 7 11 0.03 0.76
1:15 am 01:15 Cloudy with Light Rain 51 10.6 50 10 96 96 NNW 17 28 30.00 1016 5 8 0.00 0.00
1:35 am 01:35 Cloudy with Light Rain 50 9.8 49 9.2 96 96 N 17 28 29.97 1015 5 8 0.02 0.51
1:55 am 01:55 Cloudy with Light Rain 48 8.7 46 8 95 95 N 12 19 30.00 1016 10 16 0.02 0.51
2:15 am 02:15 Cloudy 46 8 45 7.3 95 95 N 12 19 30.03 1017 10 16 0.00 0.00
2:35 am 02:35 Cloudy with Rain 45 7.2 44 6.6 96 96 NNW 15 24 30.06 1018 5 8 0.02 0.51
2:55 am 02:55 Cloudy with Light Rain 44 6.5 42 5.8 95 95 N 18 30 30.06 1018 4 6 0.03 0.76
3:15 am 03:15 Cloudy with Light Rain 42 5.5 40 4.6 94 94 N 17 28 30.12 1020 4 6 0.01 0.25
6:00 am 06:00 Cloudy with Light Rain 37 3 36 2 93 93 NNE 14 22 30.24 1024 6 10 0.00 0.00
6:50 am 06:50 Cloudy with Light Rain 37 3 36 2 93 93 NNE 14 22 30.24 1024 6 10 0.00 0.00
7:50 am 07:50 Cloudy with Light Rain 37 3 36 2 93 93 NNE 14 22 30.30 1026 6 10 0.00 0.00
8:50 am 08:50 Cloudy with Light Rain 37 3 36 2 93 93 N 16 26 30.36 1028 4 6 0.00 0.00
9:45 am 09:45 Cloudy with Light Rain 36 2 34 1 93 93 N 16 26 30.39 1029 7 11 0.00 0.00
10:50 am 10:50 Cloudy 36 2 32 0 87 87 N 16 26 30.42 1030 10 16 0.00 0.00
12:50 pm 12:50 Cloudy 34 1 30 -1 87 87 N 20 31 30.45 1031 10 16 0.00 0.00
2:50 pm 14:50 Partly Cloudy 39 4 32 0 75 75 N 18 30 30.42 1030 10 16 0.00 0.00
3:50 pm 15:50 Mostly Sunny 41 5 28 -2 61 61 NNE 16 26 30.42 1030 10 16 0.00 0.00
4:50 pm 16:50 Mostly Sunny 43 6 30 -1 61 61 N 17 28 30.45 1031 10 16 0.00 0.00
5:50 pm 17:50 Mostly Sunny 41 5 27 -3 57 57 N 10 17 30.48 1032 10 16 0.00 0.00
6:50 pm 18:50 Mostly Clear 37 3 27 -3 65 65 N 10 17 30.50 1033 10 16 0.00 0.00
7:50 pm 19:50 Mostly Clear 37 3 25 -4 60 60 N 9 15 30.53 1034 10 16 0.00 0.00
8:15 pm 20:15 Clear 37 2.7 24 -4.6 59 59 N 9 15 30.53 1034 10 16 0.00 0.00
8:35 pm 20:35 Clear 37 2.5 24 -4.6 60 60 N 8 13 30.56 1035 10 16 0.00 0.00
8:50 pm 20:50 Mostly Clear 36 2 23 -5 60 60 N 9 15 30.56 1035 10 16 0.00 0.00
8:55 pm 20:55 Clear 36 2.3 24 -4.7 60 60 N 10 17 30.56 1035 10 16 0.00 0.00
9:15 pm 21:15 Clear 36 2 24 -4.7 62 62 N 9 15 30.56 1035 10 16 0.00 0.00
9:35 pm 21:35 Clear 35 1.9 23 -5 61 61 N 10 17 30.56 1035 10 16 0.00 0.00
9:50 pm 21:50 Mostly Clear 36 2 23 -5 60 60 N 10 17 30.56 1035 10 16 0.00 0.00
9:55 pm 21:55 Clear 35 1.6 23 -5.2 61 61 N 9 15 30.56 1035 10 16 0.00 0.00
10:15 pm 22:15 Clear 34 1.3 23 -5.2 62 62 N 7 11 30.59 1036 10 16 0.00 0.00
10:35 pm 22:35 Clear 34 1.1 23 -5.1 64 64 N 7 11 30.59 1036 10 16 0.00 0.00
10:55 pm 22:55 Clear 34 1.1 22 -5.5 62 62 N 7 11 30.59 1036 10 16 0.00 0.00
11:15 pm 23:15 Clear 34 1 22 -5.8 61 61 NNE 7 11 30.56 1035 10 16 0.00 0.00
11:35 pm 23:35 Clear 34 1 21 -6.1 59 59 NNE 10 17 30.56 1035 10 16 0.00 0.00
11:55 pm 23:55 Clear 33 0.7 21 -6 61 61 NNE 7 11 30.56 1035 10 16 0.00 0.00

Powered by AerisWeather